DW4360 Weather Reports


Display with metric or nautical units.
time (UTC)temp
F
wind
direction
speed
MPH
gust
MPH
rain 1hr
in
rain 24hr
in
rain mn
in
humidity
%
barometer
mb
20240521201006 53 175 0.0 0.0 0.00 0.00 0.04 86 1019.9
20240521200004 54 174 0.0 0.0 0.00 0.00 0.03 85 1020.1
20240521195003 54 183 1.0 0.0 0.00 0.00 0.02 82 1020.2
20240521193001 55 209 1.0 0.0 0.00 0.00 0.01 80 1020.2
20240521191000 55 171 0.0 0.0 0.00 0.00 0.01 79 1020.2
20240521184957 55 196 0.0 0.0 0.00 0.00 0.00 76 1020.4
20240521182955 55 196 0.0 0.0 0.00 0.00 0.00 75 1020.5
20240521181954 55 196 1.0 0.0 0.00 0.00 0.00 75 1020.6
20240521180953 55 192 0.0 0.0 0.00 0.00 0.00 75 1020.6
20240521173950 55 192 0.0 0.0 0.00 0.00 0.00 72 1020.8
20240521172949 55 191 0.0 0.0 0.00 0.00 0.00 72 1020.9
20240521170947 54 199 0.0 0.0 0.00 0.00 0.00 71 1021.1
20240521165946 54 199 0.0 0.0 0.00 0.00 0.00 71 1021.1
20240521164945 54 199 0.0 0.0 0.00 0.00 0.00 73 1021.1
20240521163944 54 190 0.0 0.0 0.00 0.00 0.00 74 1021.2
20240521162943 53 190 0.0 0.0 0.00 0.00 0.00 74 1021.0
20240521161942 52 192 0.0 0.0 0.00 0.00 0.00 75 1021.2
20240521155940 52 192 0.0 0.0 0.00 0.00 0.00 78 1021.8
20240521154939 51 192 0.0 0.0 0.00 0.00 0.00 78 1021.5
20240521153938 51 193 0.0 0.0 0.00 0.00 0.00 79 1021.4
20240521152937 50 145 0.0 0.0 0.00 0.00 0.00 80 1021.6
20240521151936 50 148 0.0 0.0 0.00 0.00 0.00 80 1021.7
20240521150935 50 140 0.0 0.0 0.00 0.00 0.00 81 1021.7
20240521145934 49 205 0.0 0.0 0.00 0.00 0.00 82 1021.6
20240521144933 49 240 0.0 0.0 0.00 0.00 0.00 82 1021.7
20240521143932 48 314 0.0 0.0 0.00 0.00 0.00 83 1021.8
20240521142931 48 315 0.0 0.0 0.00 0.00 0.00 84 1022.1
20240521141930 47 316 0.0 0.0 0.00 0.00 0.00 84 1022.1
20240521140929 47 317 0.0 0.0 0.00 0.00 0.00 84 1022.1
20240521135928 47 317 0.0 0.0 0.00 0.00 0.00 85 1022.1
20240521134927 47 317 0.0 0.0 0.00 0.00 0.00 85 1022.2
20240521132925 47 317 0.0 0.0 0.00 0.00 0.00 85 1022.2
20240521130923 47 321 0.0 0.0 0.00 0.00 0.00 84 1022.2
20240521125922 47 321 0.0 0.0 0.00 0.00 0.00 84 1022.2
20240521124921 47 321 0.0 0.0 0.00 0.00 0.00 84 1022.2
20240521123920 47 321 0.0 0.0 0.00 0.00 0.00 84 1022.3
20240521122919 47 330 0.0 0.0 0.00 0.00 0.00 84 1022.5
20240521115915 47 330 0.0 0.0 0.00 0.00 0.00 84 1022.4
20240521114915 46 330 0.0 0.0 0.00 0.00 0.00 84 1022.4
20240521113914 46 330 0.0 0.0 0.00 0.00 0.00 84 1022.5
20240521112913 46 330 0.0 0.0 0.00 0.00 0.00 85 1022.5
20240521111912 46 330 0.0 0.0 0.00 0.00 0.00 85 1022.6
20240521110911 46 330 0.0 0.0 0.00 0.00 0.00 84 1022.7
20240521104908 47 330 0.0 0.0 0.00 0.00 0.00 84 1022.7
20240521103907 47 330 0.0 0.0 0.00 0.00 0.00 83 1022.7
20240521101906 47 330 0.0 0.0 0.00 0.00 0.00 82 1022.8
20240521100904 47 330 0.0 0.0 0.00 0.00 0.00 81 1022.7
20240521095903 48 330 0.0 0.0 0.00 0.00 0.00 81 1022.8
20240521094903 48 330 0.0 0.0 0.00 0.00 0.00 80 1022.8
20240521093901 48 330 0.0 0.0 0.00 0.00 0.00 79 1022.8
20240521092900 49 330 0.0 0.0 0.00 0.00 0.00 78 1022.9
20240521091859 49 330 0.0 0.0 0.00 0.00 0.00 79 1022.9
20240521090858 49 330 0.0 0.0 0.00 0.00 0.00 78 1022.9
20240521085857 49 330 0.0 0.0 0.00 0.00 0.00 76 1023.0
20240521083855 50 330 0.0 0.0 0.00 0.00 0.00 76 1023.0
20240521082854 50 317 0.0 0.0 0.00 0.00 0.00 75 1023.0
20240521081854 50 315 0.0 0.0 0.00 0.00 0.00 76 1022.9
20240521080852 50 315 0.0 0.0 0.00 0.00 0.00 75 1023.0
20240521075852 50 314 0.0 0.0 0.00 0.00 0.00 74 1022.9
20240521074850 51 323 0.0 0.0 0.00 0.00 0.00 73 1022.9
20240521073849 51 323 0.0 0.0 0.00 0.00 0.00 73 1022.9
20240521072848 52 309 0.0 0.0 0.00 0.00 0.00 72 1023.0
20240521071848 52 300 0.0 0.0 0.00 0.00 0.00 71 1023.1
20240521070846 52 323 0.0 0.0 0.00 0.00 0.00 71 1023.2
20240521065845 52 329 0.0 0.0 0.00 0.00 0.00 70 1023.1
20240521064844 53 323 0.0 0.0 0.00 0.00 0.00 69 1023.1
20240521063844 54 29 0.0 0.0 0.00 0.00 0.00 68 1023.1
20240521062842 54 311 0.0 0.0 0.00 0.00 0.00 67 1023.0
20240521060840 55 324 0.0 0.0 0.00 0.00 0.00 66 1022.9
20240521055839 55 311 1.0 0.0 0.00 0.00 0.00 66 1022.9
20240521054839 56 312 0.0 0.0 0.00 0.00 0.00 65 1022.9
20240521052836 56 308 0.0 0.0 0.00 0.00 0.00 63 1022.9
20240521051835 56 308 0.0 0.0 0.00 0.00 0.00 63 1022.7
20240521050834 57 311 0.0 0.0 0.00 0.00 0.00 63 1022.7
20240521045833 57 323 0.0 0.0 0.00 0.00 0.00 62 1022.6
20240521044832 58 321 4.0 0.0 0.00 0.00 0.00 61 1022.4
20240521043831 58 311 0.0 0.0 0.00 0.00 0.00 60 1022.4
20240521042830 59 319 4.0 0.0 0.00 0.00 0.00 59 1022.4
20240521041829 59 317 0.0 0.0 0.00 0.00 0.00 58 1022.3
20240521040828 60 310 3.0 0.0 0.00 0.00 0.00 57 1022.2
20240521034826 61 284 0.0 0.0 0.00 0.00 0.00 55 1022.0
20240521032824 63 321 1.0 0.0 0.00 0.00 0.00 52 1021.8
20240521030822 64 306 0.0 0.0 0.00 0.00 0.00 48 1021.7
20240521025821 65 334 2.0 0.0 0.00 0.00 0.00 46 1021.5
20240521024820 65 310 3.0 0.0 0.00 0.00 0.00 46 1021.5
20240521023819 65 309 0.0 0.0 0.00 0.00 0.00 45 1021.3
20240521021817 66 342 0.0 0.0 0.00 0.00 0.00 45 1021.3
20240521020816 66 317 0.0 0.0 0.00 0.00 0.00 44 1021.3
20240521015815 66 309 0.0 0.0 0.00 0.00 0.00 44 1021.3
20240521013813 66 322 2.0 0.0 0.00 0.00 0.00 44 1021.3
20240521012812 66 329 0.0 0.0 0.00 0.00 0.00 43 1021.4
20240521011811 67 313 6.0 0.0 0.00 0.00 0.00 43 1021.3
20240521010809 68 315 6.0 0.0 0.00 0.00 0.00 42 1021.5
20240521005809 68 339 4.0 0.0 0.00 0.00 0.00 43 1021.5
20240521004808 69 300 1.0 0.0 0.00 0.00 0.00 43 1021.6
20240521003806 70 299 0.0 0.0 0.00 0.00 0.00 40 1021.7
20240521002806 71 328 0.0 0.0 0.00 0.00 0.00 40 1021.8
20240521001805 73 317 2.0 0.0 0.00 0.00 0.00 39 1021.8
20240521000803 72 88 0.0 0.0 0.00 0.00 0.00 41 1021.9
20240520235803 72 322 6.0 0.0 0.00 0.00 0.00 41 1022.1
20240520233801 74 307 4.0 0.0 0.00 0.00 0.00 39 1022.3
20240520232759 73 317 0.0 0.0 0.00 0.00 0.00 40 1022.3
20240520231758 73 342 0.0 0.0 0.00 0.00 0.00 42 1022.3
20240520230757 72 327 0.0 0.0 0.00 0.00 0.00 43 1022.4
20240520225756 71 326 0.0 0.0 0.00 0.00 0.00 43 1022.5
20240520224756 70 315 0.0 0.0 0.00 0.00 0.00 44 1022.6
20240520222753 69 323 0.0 0.0 0.00 0.00 0.00 45 1022.8
20240520221752 70 320 0.0 0.0 0.00 0.00 0.00 43 1022.9
20240520215750 70 302 0.0 0.0 0.00 0.00 0.00 45 1023.1
20240520214749 70 313 0.0 0.0 0.00 0.00 0.00 42 1023.3
20240520213748 69 315 0.0 0.0 0.00 0.00 0.00 46 1023.3
20240520212747 68 323 2.0 0.0 0.00 0.00 0.00 48 1023.5
20240520211747 68 15 0.0 0.0 0.00 0.00 0.00 47 1023.6
20240520210745 67 5 0.0 0.0 0.00 0.00 0.00 47 1023.7
20240520204743 65 170 0.0 0.0 0.00 0.00 0.00 53 1023.8
20240520203743 63 123 0.0 0.0 0.00 0.00 0.00 54 1024.0
20240520202741 63 321 0.0 0.0 0.00 0.00 0.00 53 1024.1
20240520201740 62 172 0.0 0.0 0.00 0.00 0.00 54 1024.2